| time (UTC) | temp F | wind direction | speed knots | gust knots | rain 1hr in | rain 24hr in | rain mn in | humidity % | barometer mb |
| 20260504231544 | 63 | 129 | 0.0 | 0.9 | 0.00 | 0.00 | 0.00 | 45 | 1008.2 |
| 20260504230043 | 65 | 218 | 0.0 | 1.7 | 0.00 | 0.00 | 0.00 | 43 | 1008.0 |
| 20260504224542 | 66 | 255 | 0.0 | 3.5 | 0.00 | 0.00 | 0.00 | 40 | 1007.9 |
| 20260504223042 | 67 | 108 | 0.0 | 4.3 | 0.00 | 0.00 | 0.00 | 38 | 1007.8 |
| 20260504221543 | 67 | 217 | 0.9 | 6.1 | 0.00 | 0.00 | 0.00 | 37 | 1007.8 |
| 20260504220053 | 67 | 272 | 1.7 | 5.2 | 0.00 | 0.00 | 0.00 | 37 | 1007.8 |
| 20260504214549 | 67 | 335 | 0.9 | 3.5 | 0.00 | 0.00 | 0.00 | 39 | 1007.9 |
| 20260504213048 | 68 | 200 | 0.9 | 5.2 | 0.00 | 0.00 | 0.00 | 36 | 1008.0 |
| 20260504211540 | 69 | 338 | 0.9 | 6.1 | 0.00 | 0.00 | 0.00 | 35 | 1007.9 |
| 20260504210038 | 70 | 167 | 0.0 | 5.2 | 0.00 | 0.00 | 0.00 | 35 | 1007.8 |
| 20260504204535 | 69 | 230 | 0.9 | 5.2 | 0.00 | 0.00 | 0.00 | 36 | 1007.7 |
| 20260504203033 | 68 | 330 | 3.5 | 8.7 | 0.00 | 0.00 | 0.00 | 37 | 1007.9 |
| 20260504201530 | 67 | 266 | 1.7 | 3.5 | 0.00 | 0.00 | 0.00 | 39 | 1008.1 |
| 20260504200038 | 67 | 348 | 0.9 | 3.5 | 0.00 | 0.00 | 0.00 | 39 | 1008.4 |
| 20260504194529 | 67 | 278 | 1.7 | 4.3 | 0.00 | 0.00 | 0.00 | 38 | 1008.4 |
| 20260504193027 | 67 | 214 | 0.9 | 6.1 | 0.00 | 0.00 | 0.00 | 39 | 1008.4 |
| 20260504191537 | 66 | 328 | 2.6 | 7.8 | 0.00 | 0.00 | 0.00 | 42 | 1008.2 |
| 20260504190021 | 65 | 185 | 1.7 | 3.5 | 0.00 | 0.00 | 0.00 | 43 | 1008.3 |
| 20260504184520 | 63 | 217 | 1.7 | 7.0 | 0.00 | 0.00 | 0.00 | 44 | 1008.6 |
| 20260504183035 | 62 | 245 | 0.0 | 2.6 | 0.00 | 0.00 | 0.00 | 46 | 1008.8 |
| 20260504181524 | 61 | 16 | 0.0 | 1.7 | 0.00 | 0.00 | 0.00 | 48 | 1009.0 |
| 20260504180021 | 62 | 347 | 0.9 | 4.3 | 0.00 | 0.00 | 0.00 | 44 | 1008.9 |
| 20260504174520 | 61 | 331 | 0.9 | 6.1 | 0.00 | 0.00 | 0.00 | 45 | 1008.9 |
| 20260504173017 | 62 | 264 | 0.0 | 4.3 | 0.00 | 0.00 | 0.00 | 42 | 1008.9 |
| 20260504171517 | 62 | 272 | 1.7 | 6.1 | 0.00 | 0.00 | 0.00 | 41 | 1008.8 |
| 20260504081545 | 35 | 285 | 0.0 | 0.9 | 0.00 | 0.00 | 0.00 | 82 | 1011.2 |
| 20260504044537 | 35 | 266 | 0.0 | 0.9 | 0.00 | 0.01 | 0.00 | 84 | 1010.8 |
| 20260504043029 | 34 | 266 | 0.0 | 0.9 | 0.00 | 0.01 | 0.00 | 84 | 1011.0 |
| 20260504041528 | 34 | 266 | 0.0 | 0.9 | 0.00 | 0.01 | 0.00 | 87 | 1010.9 |
| 20260504040024 | 35 | 266 | 0.0 | 0.9 | 0.00 | 0.01 | 0.00 | 87 | 1010.8 |
| 20260504034534 | 35 | 266 | 0.0 | 0.0 | 0.00 | 0.01 | 0.01 | 86 | 1010.8 |
| 20260504033023 | 35 | 266 | 0.0 | 0.9 | 0.00 | 0.01 | 0.01 | 85 | 1010.7 |
| 20260504031521 | 35 | 266 | 0.0 | 0.9 | 0.00 | 0.01 | 0.01 | 84 | 1010.7 |
| 20260504030036 | 36 | 266 | 0.0 | 0.0 | 0.00 | 0.01 | 0.01 | 83 | 1010.6 |
| 20260504024517 | 37 | 266 | 0.0 | 0.9 | 0.00 | 0.01 | 0.01 | 81 | 1010.5 |
| 20260504023016 | 37 | 266 | 0.0 | 0.9 | 0.00 | 0.01 | 0.01 | 79 | 1010.7 |
| 20260504021513 | 37 | 266 | 0.0 | 0.9 | 0.00 | 0.01 | 0.01 | 78 | 1010.7 |
| 20260504020011 | 38 | 266 | 0.0 | 0.0 | 0.00 | 0.01 | 0.01 | 76 | 1010.7 |
| 20260504014528 | 38 | 266 | 0.0 | 0.9 | 0.00 | 0.04 | 0.01 | 74 | 1010.6 |
| 20260504013009 | 39 | 266 | 0.0 | 0.0 | 0.00 | 0.04 | 0.01 | 73 | 1010.5 |
| 20260504011508 | 40 | 266 | 0.0 | 0.9 | 0.00 | 0.04 | 0.01 | 68 | 1010.4 |
| 20260504010009 | 42 | 266 | 0.0 | 0.9 | 0.00 | 0.04 | 0.01 | 61 | 1010.2 |
| 20260504004511 | 43 | 266 | 0.0 | 1.7 | 0.00 | 0.05 | 0.01 | 59 | 1010.0 |
| 20260504003019 | 44 | 319 | 0.0 | 2.6 | 0.00 | 0.05 | 0.01 | 55 | 1009.7 |
| 20260504001506 | 44 | 280 | 1.7 | 5.2 | 0.00 | 0.05 | 0.01 | 54 | 1009.6 |
| 20260504000005 | 45 | 303 | 0.0 | 3.5 | 0.00 | 0.05 | 0.01 | 53 | 1009.3 |
| 20260503234515 | 45 | 91 | 0.0 | 2.6 | 0.00 | 0.07 | 0.01 | 51 | 1008.9 |
| 20260503233005 | 46 | 337 | 0.9 | 2.6 | 0.00 | 0.07 | 0.01 | 50 | 1008.7 |